Home > Weather > Walnut Creek > Past weeks

Flag for USA Past Weather in Walnut Creek, California, USA — Yesterday and Last 2 Weeks

Now
60 °F

Clear.


Feels Like: 60 °F
Forecast: 55 / 88 °F
Wind: 14 mph from Southwest

Location: Buchanan Field

Current Time: Jun 30, 2016 at 1:37:07 AM

Latest Report: Jun 30, 2016 at 12:53 AM


Visibility: 10 mi

Pressure: 29.83 "Hg

Humidity: 69%

Dew Point: 50 °F

Location of Walnut CreekLocation

Past Weather in Walnut Creek — Graph

°F

Walnut Creek Temperature Yesterday

Maximum temperature yesterday: 90 °F (at 2:53 PM)
Minimum temperature yesterday: 58 °F (at 2:53 AM)
Average temperature yesterday: 69 °F

High & Low Weather Summary for the Past Weeks

 TemperatureHumidityPressure
High101 °F (Jun 27, 3:53 PM)81% (Jun 24, 5:53 AM)30.15 "Hg (Jun 24, 5:53 AM)
Low54 °F (Jun 15, 3:53 AM)8% (Jun 20, 3:53 PM)29.83 "Hg (Jun 29, 5:53 PM)
Average73 °F44%29.95 "Hg
* Reported Jun 14 11:53 PM — Jun 29 11:53 PM, Walnut Creek, Weather by CustomWeather, © 2016

Note: Actual official high and low records may vary slightly from our data, if they occured in-between our weather recording intervals... More about our weather records

Advertising

Walnut Creek Weather History for the Previous 24 Hours

Scroll right to see more
 ConditionsComfort  
Time TempWeatherWind HumidityBarometerVisibility
11:53 PM
Wed, Jun 29
60 °FClear.15 mph67%29.84 "Hg10 mi
10:53 PM60 °FClear.16 mph67%29.84 "Hg10 mi
9:53 PM60 °FClear.21 mph67%29.85 "Hg10 mi
8:53 PM61 °FSunny.14 mph65%29.84 "Hg10 mi
7:53 PM66 °FSunny.18 mph54%29.85 "Hg10 mi
6:53 PM74 °FSunny.13 mph43%29.83 "Hg10 mi
5:53 PM80 °FSunny.15 mph36%29.83 "Hg10 mi
4:53 PM83 °FSunny.15 mph33%29.83 "Hg10 mi
3:53 PM87 °FSunny.17 mph29%29.84 "Hg10 mi
2:53 PM90 °FSunny.13 mph23%29.85 "Hg10 mi
1:53 PM87 °FSunny.10 mph26%29.87 "Hg10 mi
12:53 PM83 °FSunny.9 mph31%29.89 "Hg10 mi
11:53 AM80 °FSunny.10 mph35%29.90 "Hg10 mi
10:53 AM75 °FSunny.9 mph42%29.91 "Hg10 mi
9:53 AM72 °FSunny.6 mph46%29.90 "Hg10 mi
8:53 AM66 °FSunny.12 mph56%29.91 "Hg10 mi
7:53 AM64 °FSunny.9 mph61%29.89 "Hg10 mi
6:53 AM60 °FSunny.9 mph67%29.89 "Hg10 mi
5:53 AM59 °FClear.No wind72%29.87 "Hg9 mi
4:53 AM58 °FClear.3 mph78%29.86 "Hg9 mi
3:53 AM59 °FClear.3 mph78%29.85 "Hg9 mi
2:53 AM58 °FClear.6 mph81%29.85 "Hg8 mi
1:53 AM62 °FClear.5 mph70%29.85 "Hg10 mi
Weather by CustomWeather, © 2016

See weather overviewHow to use our weather pages